Terminal Aerodrome Forecast
Issued by NWS Riverton, WY

Home | Current Version | Previous Version | Text Only | Print | Product List | Glossary On
Versions: 1 2 3 4 5 6 7 8 9 10 11 12 13 14 15 16 17 18 19 20
000
FTUS45 KRIW 302300
TAFRIW
TAF
KRIW 302324Z 0100/0124 29010G15KT P6SM VCSH FEW050 SCT080 BKN180
     FM010100 29010G15KT P6SM FEW050 SCT090
     FM011000 02007KT P6SM BKN020
     FM011600 01011KT P6SM VCSH BKN020=

USA.gov is the U.S. government's official web portal to all federal, state and local government web resources and services.